Location: Wanzleben
(52.0609°N, 11.4408°E)
Time: 18:49:39
(UTC+00:00)

Terra - Pass Details

Date: 18 September 2020
Orbit: 701 x 703 km, 98.2° (Epoch: 22 October)

Event Time Altitude Azimuth Distance (km) Brightness Sun altitude
Exits shadow 20:19:10 37° 41° (NE) 1,093 2.7 -25.8°
Drops below altitude 10° 20:22:50 10° 357° (N) 2,184 4.9 -26.2°
Sets 20:25:12 0° 351° (N) 3,106 5.9 -26.5°
